This demonstration page uses our WeatherBlox Daily Observations layout. Learn more.

Left ArrowRight Arrow

30.21309, -93.2044

Hourly Observations for April 11, 2022

Temp ( °F °C ) Dew Point ( °F °C ) Humidity (%) Winds ( mph kmh ) Pressure ( in mb ) Visibility ( mi km ) Precip ( " mm )
12:15 am 00:15 Partly Cloudy 62 16.7 59 15.2 91 91 ESE 5 7 29.94 1014 10 16 0.00 0.00
12:35 am 00:35 Partly Cloudy 62 16.7 60 15.3 92 92 ESE 6 9 29.93 1014 10 16 0.00 0.00
12:55 am 00:55 Mostly Cloudy 62 16.9 60 15.5 92 92 ESE 5 7 29.92 1013 10 16 0.00 0.00
1:15 am 01:15 Cloudy 62 16.9 60 15.6 92 92 ESE 6 9 29.91 1013 10 16 0.00 0.00
1:35 am 01:35 Cloudy 64 17.7 61 16.3 92 92 ESE 3 6 29.92 1013 10 16 0.00 0.00
1:55 am 01:55 Cloudy 65 18.1 62 16.5 90 90 E 3 6 29.92 1013 10 16 0.00 0.00
2:15 am 02:15 Cloudy 65 18.4 62 16.8 90 90 E 3 6 29.91 1013 10 16 0.00 0.00
2:35 am 02:35 Cloudy 65 18.4 62 16.9 91 91 ESE 3 6 29.91 1013 10 16 0.00 0.00
2:55 am 02:55 Cloudy 65 18.2 63 17 93 93 SE 5 7 29.90 1013 10 16 0.00 0.00
3:15 am 03:15 Cloudy 65 18.1 62 16.9 93 93 ESE 6 9 29.89 1012 10 16 0.00 0.00
3:35 am 03:35 Cloudy with Nearby Thunderstorms 65 18.1 62 16.9 93 93 E 6 9 29.89 1012 10 16 0.00 0.00
3:55 am 03:55 Cloudy with Nearby Thunderstorms 65 18.1 63 17 93 93 E 5 7 29.89 1012 10 16 0.00 0.00
4:15 am 04:15 Cloudy 64 17.8 62 16.7 93 93 E 5 7 29.89 1012 10 16 0.00 0.00
4:35 am 04:35 Cloudy 64 17.5 62 16.5 94 94 ESE 5 7 29.89 1012 7 11 0.00 0.00
4:55 am 04:55 Cloudy with Mist and Fog 63 17 61 16 94 94 ESE 5 7 29.89 1012 7 11 0.00 0.00
5:15 am 05:15 Cloudy 64 18 63 17.2 95 95 E 6 9 29.90 1013 7 11 0.00 0.00
5:35 am 05:35 Cloudy with Mist and Fog 65 18.3 63 17.4 95 95 E 5 7 29.90 1013 7 11 0.00 0.00
6:00 am 06:00 Cloudy 64 18 64 18 100 100 E 5 7 29.91 1013 10 16 0.00 0.00
6:55 am 06:55 Mostly Cloudy with Mist and Fog 64 18 63 17 94 94 Calm 29.93 1014 5 8 0.00 0.00
7:55 am 07:55 Mostly Cloudy with Mist and Fog 68 20 66 19 94 94 SE 10 17 29.92 1013 5 8 0.00 0.00
8:39 am 08:39 Mostly Cloudy with Thunderstorms 70 21 66 19 88 88 S 13 20 29.95 1014 5 8 0.00 0.00
8:51 am 08:51 Mostly Cloudy with Thunderstorms 70 21 66 19 88 88 S 13 20 29.95 1014 5 8 0.00 0.00
9:55 am 09:55 Cloudy with Thunderstorms 70 21 66 19 88 88 S 16 26 30.00 1016 4 6 0.00 0.00
10:26 am 10:26 Mostly Cloudy 70 21 64 18 83 83 S 21 33 29.96 1015 7 11 0.00 0.00
10:55 am 10:55 Mostly Cloudy 68 20 63 17 83 83 SE 17 28 29.90 1013 7 11 0.00 0.00
11:45 am 11:45 Partly Cloudy 72 22 68 20 88 88 SSE 10 17 29.91 1013 7 11 0.00 0.00
12:45 pm 12:45 Mostly Sunny 75 24 64 18 69 69 SSE 21 33 29.90 1013 10 16 0.00 0.00
1:50 pm 13:50 Partly Cloudy 79 26 68 20 70 70 SSE 16 26 29.91 1013 10 16 0.00 0.00
2:45 pm 14:45 Mostly Cloudy 79 26 66 19 65 65 SSE 26 43 29.90 1013 10 16 0.00 0.00
3:50 pm 15:50 Cloudy 79 26 68 20 70 70 S 16 26 29.90 1013 10 16 0.00 0.00
4:45 pm 16:45 Cloudy 77 25 66 19 69 69 S 20 31 29.90 1013 10 16 0.00 0.00
5:54 pm 17:54 Mostly Cloudy 75 24 68 20 78 78 SSE 17 28 29.90 1013 10 16 0.00 0.00
6:50 pm 18:50 Mostly Cloudy 75 24 68 20 78 78 S 13 20 29.91 1013 10 16 0.00 0.00
7:45 pm 19:45 Mostly Cloudy 73 23 66 19 78 78 SE 12 19 29.91 1013 10 16 0.00 0.00
8:48 pm 20:48 Cloudy 72 22 66 19 83 83 SSE 14 22 29.91 1013 10 16 0.00 0.00
9:55 pm 21:55 Cloudy 72 22 66 19 83 83 SSE 12 19 29.93 1014 10 16 0.00 0.00
10:15 pm 22:15 Cloudy 71 21.9 67 19.5 86 86 SE 10 17 29.94 1014 10 16 0.00 0.00
10:35 pm 22:35 Cloudy 71 21.7 67 19.4 87 87 SSE 9 15 29.94 1014 10 16 0.00 0.00
10:55 pm 22:55 Cloudy 71 21.4 67 19.4 88 88 SSE 10 17 29.94 1014 10 16 0.00 0.00
11:15 pm 23:15 Cloudy 70 21.1 67 19.2 89 89 SSE 10 17 29.93 1014 7 11 0.00 0.00
11:35 pm 23:35 Cloudy 69 20.7 66 19.1 91 91 SSE 10 17 29.93 1014 7 11 0.00 0.00
11:55 pm 23:55 Cloudy 69 20.4 66 18.9 91 91 SSE 12 19 29.92 1013 7 11 0.00 0.00

Powered by AerisWeather